sat.trackr.live / text

‹ back to catalog

QIANFAN-120

NORAD 68647 · 2026-075M

PAYLOAD ACTIVE UNKNOWN

§ Identity

Operator
Country
PRC
Launch date
2026-04-07
Launch site
WSC
Launch vehicle
Mass (kg)
RCS (m²)

External: N2YO · Heavens-Above · Gunter

§ Orbital elements

Epoch: 2026-09-19T21:44:10.582656Z

Period
106.59 min
Inclination
88.9868°
Eccentricity
0.0001910
Mean motion
13.51020270 rev/d
Perigee alt
1,067.1 km
Apogee alt
1,069.9 km
Semi-major
7,446.6 km
B*
5.0020e-5
RAAN
311.3249°
Arg perigee
86.8429°
Mean anomaly
273.2941°
Rev number
2,260

§ Raw data

QIANFAN-1201 68647U 26075M   26262.90567804  .00000044  00000+0  50020-4 0  99962 68647  88.9868 311.3249 0001910  86.8429 273.2941 13.51020270 22600

JSON: /api/v1/satellites/68647 · /tle

For live sub-satellite position, see the globe view (requires WebGL).

§ Visibility from observer

Set your observer location to see the next 7 days of passes ≥ 10°. The values pass through the URL so the page stays shareable.

No JS? Fill the form by hand. The geolocation button needs JavaScript.